Location: Unspecified
(0.0000°N, 0.0000°E)
Time: 06:29:22
(UTC+00:00)

Transit 2A - Pass Details

Date: 20 November 2019
Orbit: 602 x 957 km, 66.7° (Epoch: 11 December)

Event Time Altitude Azimuth Distance (km) Brightness Sun altitude
Rises 09:21:28 0° 178° (S) 3,547 9.7 49.6°
Reaches altitude 10° 09:24:31 10° 165° (SSE) 2,555 9.3 50.3°
Maximum altitude 09:29:16 25° 112° (ESE) 1,647 9.1 51.3°
Drops below altitude 10° 09:33:40 10° 58° (ENE) 2,363 8.9 52.2°
Sets 09:36:21 0° 45° (NE) 3,224 9.3 52.7°
